Weather History for Fort Myers, FL

Change the Weather History Date:

Thursday, April 4, 2013

  Actual Average Record
Temperature  
Mean Temperature 74 °F 72 °F  
Max Temperature 82 °F 83 °F 90 °F (1974)
Min Temperature 66 °F 62 °F 47 °F (1915)
Degree Days  
Heating Degree Days 0 0  
Month to date heating degree days 0 0  
Since 1 July heating degree days 201 284  
Cooling Degree Days 9 7  
Month to date cooling degree days 40 28  
Year to date cooling degree days 422 389  
Growing Degree Days 24 (Base 50)    
Moisture  
Dew Point 67 °F    
Average Humidity 85    
Maximum Humidity 93    
Minimum Humidity 69    
Precipitation  
Precipitation 0.69 in 0.08 in 1.76 in (1913)
Month to date precipitation 0.69 0.34  
Year to date precipitation 3.95 7.31  
Sea Level Pressure  
Sea Level Pressure 29.99 in    
Wind  
Wind Speed 7 mph (SSE)    
Max Wind Speed 10 mph    
Max Gust Speed 14 mph    
Visibility 8 miles    
Events Rain , Thunderstorm    
T = Trace of Precipitation, MM = Missing Value Source: NWS Daily Summary

Daily Weather History Graph

Daily Weather History Graph

Search for Another Location

Airport:

Trip Planner

Search our weather history database for the weather conditions in past years. The results will help you decide how hot, cold, wet, or windy it might be!

Date:

Astronomy

Apr. 04, 2013 Rise Set
Actual Time 7:14 AM EDT 7:46 PM EDT
Civil Twilight 6:51 AM EDT 8:09 PM EDT
Nautical Twilight 6:24 AM EDT 8:36 PM EDT
Astronomical Twilight 5:56 AM EDT 9:04 PM EDT
Moon 3:09 AM EDT (4/4) 2:32 PM EDT (4/4)
Length of Visible Light 13h 17m
Length of Day
12h 31m
Waning Crescent, 34% of the Moon is Illuminated
Apr 4
Waning Crescent
Apr 10
New
Apr 18
First Quarter
Apr 25
Full
May 2
Last Quarter

Hourly Weather History & Observations

Time (EDT) Temp. Heat Index Dew Point Humidity Pressure Visibility Wind Dir Wind Speed Gust Speed Precip Events Conditions
12:53 AM 73.0 °F - 66.9 °F 81% 30.03 in 10.0 mi SE 5.8 mph - N/A   Clear
1:53 AM 72.0 °F - 66.9 °F 84% 30.01 in 10.0 mi SE 4.6 mph - N/A   Clear
2:53 AM 71.1 °F - 66.9 °F 87% 29.99 in 10.0 mi SE 6.9 mph - N/A   Scattered Clouds
3:53 AM 71.1 °F - 66.9 °F 87% 29.98 in 10.0 mi SSE 5.8 mph - N/A   Partly Cloudy
4:53 AM 71.1 °F - 66.9 °F 87% 29.98 in 10.0 mi SSE 4.6 mph - N/A   Clear
5:53 AM 70.0 °F - 66.9 °F 90% 30.00 in 10.0 mi Calm Calm - N/A   Scattered Clouds
6:53 AM 71.1 °F - 68.0 °F 90% 29.98 in 10.0 mi SE 4.6 mph - N/A   Partly Cloudy
7:53 AM 72.0 °F - 68.0 °F 87% 29.96 in 10.0 mi SE 6.9 mph - N/A   Clear
8:53 AM 73.9 °F - 68.0 °F 82% 29.98 in 10.0 mi SSE 4.6 mph - N/A   Partly Cloudy
9:21 AM 75.2 °F - 69.8 °F 83% 29.98 in 10.0 mi South 6.9 mph - N/A   Mostly Cloudy
9:31 AM 75.2 °F - 69.8 °F 83% 29.98 in 10.0 mi South 8.1 mph - N/A   Mostly Cloudy
9:53 AM 77.0 °F - 69.1 °F 76% 29.99 in 10.0 mi SSE 9.2 mph - N/A   Overcast
10:53 AM 80.1 °F 82.9 °F 69.1 °F 69% 29.99 in 10.0 mi SSE 9.2 mph - N/A   Mostly Cloudy
11:09 AM 80.6 °F 83.9 °F 69.8 °F 70% 29.99 in 10.0 mi South 6.9 mph - N/A   Scattered Clouds
11:22 AM 80.6 °F 83.9 °F 69.8 °F 70% 30.00 in 10.0 mi SSW 6.9 mph - N/A   Mostly Cloudy
11:46 AM 80.6 °F 83.9 °F 69.8 °F 70% 30.01 in 10.0 mi SW 8.1 mph - N/A   Scattered Clouds
11:53 AM 80.1 °F 82.9 °F 69.1 °F 69% 30.02 in 10.0 mi WSW 10.4 mph - N/A   Mostly Cloudy
12:53 PM 81.0 °F 84.1 °F 69.1 °F 67% 30.02 in 10.0 mi SSW 5.8 mph - N/A   Overcast
1:53 PM 80.1 °F 82.9 °F 69.1 °F 69% 30.00 in 10.0 mi SSW 9.2 mph - N/A   Mostly Cloudy
2:53 PM 77.0 °F - 72.0 °F 84% 30.03 in 10.0 mi West 13.8 mph 26.5 mph 0.00 in   Overcast
2:57 PM 71.6 °F - 66.2 °F 83% 30.02 in 10.0 mi NNW 26.5 mph 31.1 mph N/A Thunderstorm Thunderstorm
3:08 PM 66.2 °F - 64.4 °F 94% 30.03 in 2.5 mi NNW 17.3 mph 29.9 mph 0.02 in Rain , Thunderstorm Thunderstorms and Rain
3:17 PM 66.2 °F - 64.4 °F 94% 30.03 in 1.0 mi North 17.3 mph 24.2 mph 0.15 in Rain , Thunderstorm Heavy Rain
3:22 PM 66.2 °F - 64.4 °F 94% 30.03 in 2.0 mi NNW 18.4 mph 25.3 mph 0.17 in Rain , Thunderstorm Light Thunderstorms and Rain
3:25 PM 66.2 °F - 64.4 °F 94% 30.03 in 4.0 mi NNW 13.8 mph 25.3 mph 0.17 in Rain , Thunderstorm Light Thunderstorms and Rain
3:35 PM 66.2 °F - 64.4 °F 94% 30.03 in 7.0 mi NNW 15.0 mph - 0.18 in Rain , Thunderstorm Light Rain
3:45 PM 66.2 °F - 64.4 °F 94% 30.03 in 6.0 mi NW 10.4 mph 20.7 mph 0.20 in Rain Light Rain
3:53 PM 66.9 °F - 64.0 °F 90% 30.04 in 5.0 mi NNW 8.1 mph - 0.21 in Rain , Thunderstorm Light Rain
4:08 PM 66.2 °F - 64.4 °F 94% 30.03 in 7.0 mi North 15.0 mph 20.7 mph 0.02 in Rain Light Rain
4:53 PM 66.9 °F - 64.0 °F 90% 30.02 in 5.0 mi North 9.2 mph - 0.06 in Rain Light Rain
5:53 PM 66.9 °F - 64.0 °F 90% 29.88 in 10.0 mi ESE 9.2 mph - 0.05 in   Scattered Clouds
6:53 PM 66.9 °F - 64.0 °F 90% 29.89 in 10.0 mi SSE 8.1 mph - N/A   Clear
7:53 PM 66.9 °F - 64.0 °F 90% 29.91 in 10.0 mi East 5.8 mph - N/A   Partly Cloudy
8:14 PM 66.2 °F - 64.4 °F 94% 29.92 in 10.0 mi East 8.1 mph - N/A   Mostly Cloudy
8:44 PM 66.2 °F - 64.4 °F 94% 29.93 in 10.0 mi ESE 8.1 mph - N/A   Scattered Clouds
8:53 PM 66.0 °F - 64.0 °F 93% 29.94 in 10.0 mi ESE 6.9 mph - N/A   Scattered Clouds
10:53 PM 66.9 °F - 64.9 °F 93% 30.03 in 4.0 mi Calm Calm - 0.05 in Rain Rain
11:53 PM 66.0 °F - 64.9 °F 96% 30.02 in 6.0 mi Calm Calm - 0.13 in Rain , Thunderstorm Light Rain